(141817) = 2002 ND46

Discovered at Palomar on 2002-07-13 by NEAT.

Orbit

Orbit type: Main Belt

Note: WebGL enabled browser required.

epoch2024-03-31.0
epoch JD2460400.5
perihelion date2022-01-27.21014
perihelion JD2459606.71014
argument of perihelion (°)98.25206
ascending node (°)258.89867
inclination (°)3.57678
eccentricity0.2058349
perihelion distance (AU)1.9399545
Tisserand w.r.t. Jupiter3.5
ΔV w.r.t. Earth (km/sec)8.8
semimajor axis (AU)2.4427596
mean anomaly (°)204.92186
mean daily motion (°/day)0.25815630
aphelion distance (AU)2.946
period (years)3.82
P-vector [x]0.99687209
P-vector [y]-0.06982511
P-vector [z]0.03702014
Q-vector [x]0.04998304
Q-vector [y]0.91986020
Q-vector [z]0.38904872
absolute magnitude16.56
phase slope0.15
uncertainty0
referenceMPEC 2024-F50
observations used480
oppositions17
arc length (days)7947
first opposition used2002
last opposition used2024
residual rms (arc-secs)0.67
perturbers coarse indicatorM-v
perturbers precise indicator003Ek
first observation date used2002-06-16.0
last observation date used2024-03-19.0
computer nameMPCLINUX
JD of orbit computation2456966.762758
perihelion JD uncertainty (days)4.4018E-05
argument of perihelion uncertainty (°)8.9606E-05
ascending node uncertainty (°)8.8607E-05
inclination uncertainty (°)3.8382E-06
eccentricity uncertainty 6.0153E-08
perihelion distance uncertainty (AU)1.3881E-07
Minimum Orbit Intersection Distances (in AU)
for orbit epoch: 2460400.5, reference: E2024-G51
Mercury1.57414
Venus1.22154
Earth0.93979
Mars0.56081
Jupiter2.51041
Saturn6.40985
Uranus15.5119
Neptune27.5364

Observations

488 total observations over interval: 2002 06 16.38298 – 2024 03 19.467213
These data are available for download (format description).

Date (UT) J2000 RA J2000 Dec Magn Location Ref
2002 06 16.38298 20 18 02.48 -16 52 21.1 20.2   644 – Palomar Mountain/NEAT MPS 60046
2002 06 16.39341 20 18 02.29 -16 52 20.0 19.6   644 – Palomar Mountain/NEAT MPS 60046
2002 06 16.40388 20 18 02.13 -16 52 18.9 19.8   644 – Palomar Mountain/NEAT MPS 60046
2002 07 05.33070 20 07 51.85 -16 30 44.3 19.5   704 – Lincoln Laboratory ETS, New Mexico MPS 60046
2002 07 05.34352 20 07 51.20 -16 30 43.6 19.4   704 – Lincoln Laboratory ETS, New Mexico MPS 60046
2002 07 05.35701 20 07 50.54 -16 30 42.6 19.6   704 – Lincoln Laboratory ETS, New Mexico MPS 60046
2002 07 05.37037 20 07 49.89 -16 30 43.3 19.2   704 – Lincoln Laboratory ETS, New Mexico MPS 60046
2002 07 13.21849 20 01 00.75 -16 30 29.2 18.8   644 – Palomar Mountain/NEAT MPS 59100
2002 07 13.22201 20 01 00.56 -16 30 29.1 18.5   644 – Palomar Mountain/NEAT MPS 59100
2002 07 13.23880 20 00 59.59 -16 30 29.6 19.1   644 – Palomar Mountain/NEAT MPS 59100
2002 07 13.24230 20 00 59.38 -16 30 29.3 19.2   644 – Palomar Mountain/NEAT MPS 59100
2002 07 13.26080 20 00 58.29 -16 30 30.1 19.0   644 – Palomar Mountain/NEAT MPS 59100
2002 07 13.26421 20 00 58.12 -16 30 30.0 18.8   644 – Palomar Mountain/NEAT MPS 59100
2002 07 14.29077 19 59 59.97 -16 30 46.7 18.8   704 – Lincoln Laboratory ETS, New Mexico MPS 59100
2002 07 14.30412 19 59 59.26 -16 30 47.2 18.9   704 – Lincoln Laboratory ETS, New Mexico MPS 59100
2002 07 14.31747 19 59 58.41 -16 30 47.8 18.6   704 – Lincoln Laboratory ETS, New Mexico MPS 59100
2002 07 14.33083 19 59 57.59 -16 30 49.0 18.8   704 – Lincoln Laboratory ETS, New Mexico MPS 59100
2002 07 14.34419 19 59 56.87 -16 30 48.3 19.1   704 – Lincoln Laboratory ETS, New Mexico MPS 59100
2002 07 20.21007 19 54 15.27 -16 33 29.8 18.9   644 – Palomar Mountain/NEAT MPS 60046
2002 07 20.23148 19 54 13.97 -16 33 30.6 18.3   644 – Palomar Mountain/NEAT MPS 60046
2002 07 20.25264 19 54 12.68 -16 33 31.5 18.2   644 – Palomar Mountain/NEAT MPS 60046
2003 12 22.51067 08 29 25.39 +15 58 12.3 21.1 V 691 – Steward Observatory, Kitt Peak-Spacewatch MPS 96966
2003 12 22.52463 08 29 24.79 +15 58 12.6 20.7 V 691 – Steward Observatory, Kitt Peak-Spacewatch MPS 96966
2003 12 22.53890 08 29 24.21 +15 58 13.2 20.8 V 691 – Steward Observatory, Kitt Peak-Spacewatch MPS 96966
2004 01 15.46593 08 07 18.08 +16 34 41.1 20.2 V 691 – Steward Observatory, Kitt Peak-Spacewatch MPS 96966
2004 01 15.49279 08 07 16.26 +16 34 44.6 20.2 V 691 – Steward Observatory, Kitt Peak-Spacewatch MPS 96966
2004 01 15.52074 08 07 14.46 +16 34 47.9 20.6 V 691 – Steward Observatory, Kitt Peak-Spacewatch MPS 96966
2004 02 16.11605 07 37 54.85 +17 41 38.0 21.8 V 691 – Steward Observatory, Kitt Peak-Spacewatch MPS 178333
2004 02 16.14286 07 37 53.80 +17 41 40.8 21.5 V 691 – Steward Observatory, Kitt Peak-Spacewatch MPS 178333
2004 02 16.17029 07 37 52.72 +17 41 43.4 21.4 V 691 – Steward Observatory, Kitt Peak-Spacewatch MPS 178333
2005 04 06.24748 13 18 05.44 -13 16 31.3 20.2 V 691 – Steward Observatory, Kitt Peak-Spacewatch MPS 178333
2005 04 06.26546 13 18 04.46 -13 16 25.1 20.8 V 691 – Steward Observatory, Kitt Peak-Spacewatch MPS 178333
2005 04 06.28328 13 18 03.44 -13 16 18.9 20.9 V 691 – Steward Observatory, Kitt Peak-Spacewatch MPS 178333
2006 08 16.30520 22 33 10.66 -01 45 48.7 17.7 R 644 – Palomar Mountain/NEAT MPS 176913
2006 08 16.32563 22 33 09.72 -01 45 50.8 18.3 R 644 – Palomar Mountain/NEAT MPS 176913
2006 08 16.34611 22 33 08.79 -01 45 53.3 18.5 R 644 – Palomar Mountain/NEAT MPS 176913
2006 08 18.30155 22 31 43.37 -01 49 59.1 18.4   704 – Lincoln Laboratory ETS, New Mexico MPS 176913
2006 08 18.30220 22 31 43.35 -01 49 58.5 18.1 R 699 – Lowell Observatory-LONEOS MPS 175979
2006 08 18.31678 22 31 42.65 -01 50 01.0   699 – Lowell Observatory-LONEOS MPS 175979
2006 08 18.32262 22 31 42.32 -01 50 01.6 19.0   704 – Lincoln Laboratory ETS, New Mexico MPS 176913
2006 08 18.33135 22 31 41.94 -01 50 03.4   699 – Lowell Observatory-LONEOS MPS 175979
2006 08 18.33298 22 31 41.80 -01 50 03.2 18.6   704 – Lincoln Laboratory ETS, New Mexico MPS 176913
2006 08 18.34595 22 31 41.22 -01 50 05.2   699 – Lowell Observatory-LONEOS MPS 175979
2006 08 24.24940 22 27 03.94 -02 06 43.5 18.6   704 – Lincoln Laboratory ETS, New Mexico MPS 175979
2006 08 24.26079 22 27 03.36 -02 06 45.1 19.1   704 – Lincoln Laboratory ETS, New Mexico MPS 175979
2006 08 24.27226 22 27 02.78 -02 06 48.4 18.9   704 – Lincoln Laboratory ETS, New Mexico MPS 175979
2006 08 24.28398 22 27 02.16 -02 06 50.4 18.4   704 – Lincoln Laboratory ETS, New Mexico MPS 175979
2006 08 24.29564 22 27 01.52 -02 06 52.7 18.5   704 – Lincoln Laboratory ETS, New Mexico MPS 175979
2006 08 28.27775 22 23 44.87 -02 21 12.3 17.6 R 699 – Lowell Observatory-LONEOS MPS 176913
2006 08 28.29969 22 23 43.74 -02 21 19.7   699 – Lowell Observatory-LONEOS MPS 176913
2006 08 28.32161 22 23 42.54 -02 21 22.4   699 – Lowell Observatory-LONEOS MPS 176913
2006 08 28.34355 22 23 41.42 -02 21 27.8   699 – Lowell Observatory-LONEOS MPS 176913
2006 08 29.24638 22 22 56.74 -02 24 59.7 17.9 V 703 – Catalina Sky Survey MPS 176913
2006 08 29.24844 22 22 56.65 -02 25 00.5 17.7   704 – Lincoln Laboratory ETS, New Mexico MPS 176913
2006 08 29.25296 22 22 56.38 -02 25 01.6 18.0 V 703 – Catalina Sky Survey MPS 176913
2006 08 29.25947 22 22 56.02 -02 25 02.7 17.8   704 – Lincoln Laboratory ETS, New Mexico MPS 176913
2006 08 29.25954 22 22 56.02 -02 25 02.9 17.8 V 703 – Catalina Sky Survey MPS 176913
2006 08 29.26610 22 22 55.70 -02 25 04.8 17.8 V 703 – Catalina Sky Survey MPS 176913
2006 08 29.27070 22 22 55.40 -02 25 05.3 17.5   704 – Lincoln Laboratory ETS, New Mexico MPS 176913
2006 08 30.19321 22 22 09.79 -02 28 48.2 18.2   704 – Lincoln Laboratory ETS, New Mexico MPS 176913
2006 08 30.20438 22 22 09.19 -02 28 51.6 18.3   704 – Lincoln Laboratory ETS, New Mexico MPS 176913
2006 08 30.21562 22 22 08.60 -02 28 54.3 18.2   704 – Lincoln Laboratory ETS, New Mexico MPS 176913
2006 08 30.22691 22 22 08.00 -02 28 57.0 18.2   704 – Lincoln Laboratory ETS, New Mexico MPS 176914
2006 08 30.23822 22 22 07.43 -02 28 59.5 18.5   704 – Lincoln Laboratory ETS, New Mexico MPS 176914
2006 09 01.18951 22 20 30.99 -02 37 08.6 17.9   704 – Lincoln Laboratory ETS, New Mexico MPS 176914
2006 09 01.20078 22 20 30.42 -02 37 10.4 18.3   704 – Lincoln Laboratory ETS, New Mexico MPS 176914
2006 09 01.22347 22 20 29.24 -02 37 17.2 18.1   704 – Lincoln Laboratory ETS, New Mexico MPS 176914
2006 09 01.23471 22 20 28.64 -02 37 20.1 18.2   704 – Lincoln Laboratory ETS, New Mexico MPS 176914
2006 09 11.17617 22 12 49.93 -03 22 37.7 18.4 V 703 – Catalina Sky Survey MPS 178333
2006 09 11.18262 22 12 49.60 -03 22 38.7 18.5 V 703 – Catalina Sky Survey MPS 178333
2006 09 11.18905 22 12 49.32 -03 22 40.9 18.4 V 703 – Catalina Sky Survey MPS 178333
2006 09 11.19551 22 12 49.03 -03 22 42.6 18.3 V 703 – Catalina Sky Survey MPS 178333
2006 09 11.23112 22 12 47.48 -03 22 53.6 17.8 V 703 – Catalina Sky Survey MPS 178333
2006 09 11.23992 22 12 47.08 -03 22 55.8 17.8 V 703 – Catalina Sky Survey MPS 178333
2006 09 11.24876 22 12 46.72 -03 22 57.6 17.9 V 703 – Catalina Sky Survey MPS 178333
2006 09 11.25756 22 12 46.29 -03 23 00.4 18.0 V 703 – Catalina Sky Survey MPS 178333
2006 09 18.17480 22 08 29.66 -03 55 05.5 18.6   704 – Lincoln Laboratory ETS, New Mexico MPS 179185
2006 09 18.18647 22 08 29.26 -03 55 08.1 18.9   704 – Lincoln Laboratory ETS, New Mexico MPS 179185
2006 09 18.19805 22 08 28.83 -03 55 11.7 18.9   704 – Lincoln Laboratory ETS, New Mexico MPS 179185
2006 09 18.22124 22 08 27.96 -03 55 16.7 18.9   704 – Lincoln Laboratory ETS, New Mexico MPS 179185
2006 09 19.12099 22 08 00.19 -03 59 20.0 18.2 R 699 – Lowell Observatory-LONEOS MPS 179185
2006 09 19.14288 22 07 59.43 -03 59 25.1   699 – Lowell Observatory-LONEOS MPS 179185
2006 09 19.16476 22 07 58.77 -03 59 31.3   699 – Lowell Observatory-LONEOS MPS 179185
2006 09 19.18077 22 07 58.22 -03 59 36.2 18.7 V 703 – Catalina Sky Survey MPS 179185
2006 09 19.18666 22 07 58.01 -03 59 37.1   699 – Lowell Observatory-LONEOS MPS 179185
2006 09 19.19068 22 07 57.86 -03 59 38.3 18.3 V 703 – Catalina Sky Survey MPS 179185
2006 09 19.20064 22 07 57.57 -03 59 41.0 18.2 V 703 – Catalina Sky Survey MPS 179185
